When you browse on this site, cookies collect data to enhance your experience and personalize the content and advertising you see.
Visit our Privacy Policy to learn more. By continuing to use the site, you agree to this use of cookies and data.
  • In Portugal
  • List of Countries
  • For 7 days
  • Water Temperature
  • Satellite Maps
  • Weather Map
  • Weather Widgets
  • user-avatar
    Login

    Hourly Weather Czosnowo

    Today, 24 February, Sunday

    Time Temperature Precipitation Wind Pressure Humidity
    00:00 -2°C° 0 mm 3 mps 766 mmHg 39%
    01:00 -1°C° 0 mm 3 mps 765 mmHg 38%
    02:00 -1°C° 0 mm 3 mps 765 mmHg 40%
    03:00 -1°C° 0 mm 3 mps 765 mmHg 42%
    04:00 -1°C° 0 mm 3 mps 765 mmHg 44%
    05:00 -1°C° 0 mm 3 mps 764 mmHg 44%
    06:00 -1°C° 0 mm 3 mps 764 mmHg 44%
    07:00 -2°C° 0 mm 3 mps 764 mmHg 44%
    08:00 0°C° 0 mm 3 mps 764 mmHg 43%
    09:00 +1°C° 0 mm 3 mps 764 mmHg 41%
    10:00 +1°C° 0 mm 4 mps 764 mmHg 40%
    11:00 +3°C° 0 mm 4 mps 764 mmHg 41%
    12:00 +4°C° 0 mm 4 mps 764 mmHg 42%
    13:00 +5°C° 0 mm 4 mps 764 mmHg 43%
    14:00 +5°C° 0 mm 4 mps 763 mmHg 47%
    15:00 +4°C° 0 mm 3 mps 763 mmHg 51%
    16:00 +4°C° 0 mm 3 mps 763 mmHg 55%
    17:00 +3°C° 0 mm 3 mps 763 mmHg 58%
    18:00 +1°C° 0 mm 4 mps 763 mmHg 60%
    19:00 0°C° 0 mm 4 mps 762 mmHg 62%
    20:00 0°C° 0 mm 4 mps 762 mmHg 65%
    21:00 0°C° 0 mm 4 mps 762 mmHg 68%
    22:00 0°C° 0 mm 4 mps 762 mmHg 72%
    23:00 0°C° 0 mm 4 mps 762 mmHg 78%

    Tomorrow, 25 February, Monday

    Time Temperature Precipitation Wind Pressure Humidity
    00:00 0°C° 0 mm 3 mps 762 mmHg 84%
    01:00 0°C° 0 mm 3 mps 762 mmHg 91%
    02:00 0°C° 0 mm 3 mps 762 mmHg 93%
    03:00 0°C° 0 mm 3 mps 762 mmHg 95%
    04:00 0°C° 0 mm 3 mps 762 mmHg 97%
    05:00 +1°C° 0 mm 3 mps 762 mmHg 97%
    06:00 +1°C° 0 mm 3 mps 762 mmHg 97%
    07:00 +2°C° 0 mm 3 mps 762 mmHg 97%
    08:00 +2°C° 0 mm 3 mps 762 mmHg 94%
    09:00 +3°C° 0 mm 4 mps 762 mmHg 91%
    10:00 +4°C° 0 mm 4 mps 762 mmHg 88%
    11:00 +5°C° 0 mm 4 mps 762 mmHg 81%
    12:00 +7°C° 0 mm 3 mps 762 mmHg 74%
    13:00 +8°C° 0 mm 3 mps 762 mmHg 67%
    14:00 +8°C° 0 mm 3 mps 762 mmHg 68%
    15:00 +7°C° 0 mm 3 mps 762 mmHg 69%
    16:00 +7°C° 0 mm 3 mps 761 mmHg 70%
    17:00 +4°C° 0 mm 3 mps 761 mmHg 77%
    18:00 +3°C° 0 mm 3 mps 761 mmHg 83%
    19:00 +2°C° 0 mm 3 mps 761 mmHg 89%
    20:00 +2°C° 0 mm 3 mps 761 mmHg 91%
    21:00 +2°C° 0 mm 3 mps 761 mmHg 93%
    22:00 +2°C° 0 mm 3 mps 760 mmHg 95%
    23:00 +2°C° 0 mm 3 mps 760 mmHg 95%

    Day after tomorrow, 26 February, Tuesday

    Time Temperature Precipitation Wind Pressure Humidity
    00:00 +3°C° 0 mm 3 mps 760 mmHg 96%
    01:00 +3°C° 0 mm 3 mps 760 mmHg 97%
    02:00 +3°C° 0 mm 3 mps 759 mmHg 96%
    03:00 +3°C° 0 mm 3 mps 759 mmHg 95%
    04:00 +3°C° 0 mm 3 mps 758 mmHg 94%
    05:00 +3°C° 0 mm 3 mps 758 mmHg 93%
    06:00 +3°C° 0 mm 4 mps 758 mmHg 91%
    07:00 +3°C° 0 mm 4 mps 757 mmHg 89%
    08:00 +4°C° 0 mm 4 mps 758 mmHg 88%
    09:00 +4°C° 0 mm 4 mps 758 mmHg 86%
    10:00 +5°C° 0 mm 4 mps 758 mmHg 85%
    11:00 +5°C° 0 mm 4 mps 758 mmHg 81%
    12:00 +6°C° 0 mm 4 mps 758 mmHg 78%
    13:00 +6°C° 0 mm 4 mps 758 mmHg 74%
    14:00 +8°C° 0 mm 3 mps 758 mmHg 73%
    15:00 +8°C° 0 mm 3 mps 758 mmHg 72%
    16:00 +8°C° 0 mm 3 mps 758 mmHg 71%
    17:00 +7°C° 0 mm 3 mps 759 mmHg 77%
    18:00 +5°C° 0 mm 2 mps 759 mmHg 82%
    19:00 +4°C° 0 mm 2 mps 759 mmHg 88%
    20:00 +4°C° 0 mm 2 mps 759 mmHg 89%
    21:00 +4°C° 0 mm 1 mps 759 mmHg 90%
    22:00 +4°C° 0 mm 1 mps 759 mmHg 90%
    23:00 +4°C° 0 mm 1 mps 759 mmHg 91%

    27 February, Wednesday

    Time Temperature Precipitation Wind Pressure Humidity
    00:00 +4°C° 0 mm 1 mps 759 mmHg 91%
    01:00 +4°C° 0 mm 1 mps 759 mmHg 92%
    02:00 +4°C° 0 mm 1 mps 758 mmHg 92%
    03:00 +3°C° 0 mm 2 mps 758 mmHg 92%
    04:00 +2°C° 0 mm 2 mps 757 mmHg 93%
    05:00 +2°C° 0 mm 2 mps 757 mmHg 92%
    06:00 +2°C° 0 mm 2 mps 757 mmHg 92%
    07:00 +2°C° 0 mm 2 mps 756 mmHg 91%
    08:00 +3°C° 0 mm 2 mps 756 mmHg 86%
    09:00 +4°C° 0 mm 3 mps 756 mmHg 80%
    10:00 +5°C° 0 mm 3 mps 756 mmHg 75%
    11:00 +8°C° 0 mm 3 mps 755 mmHg 70%
    12:00 +8°C° 0 mm 4 mps 755 mmHg 65%
    13:00 +10°C° 0 mm 4 mps 755 mmHg 60%
    14:00 +10°C° 0 mm 4 mps 754 mmHg 61%
    15:00 +10°C° 0 mm 4 mps 754 mmHg 62%
    16:00 +8°C° 0 mm 4 mps 753 mmHg 64%
    17:00 +7°C° 0 mm 4 mps 753 mmHg 69%
    18:00 +7°C° 0 mm 3 mps 753 mmHg 73%
    19:00 +5°C° 0 mm 3 mps 752 mmHg 78%
    20:00 +4°C° 0 mm 3 mps 752 mmHg 79%
    21:00 +4°C° 0 mm 3 mps 751 mmHg 81%
    22:00 +4°C° 0 mm 3 mps 751 mmHg 82%
    23:00 +4°C° 0 mm 3 mps 750 mmHg 84%

    28 February, Thursday

    Time Temperature Precipitation Wind Pressure Humidity
    00:00 +4°C° 0 mm 3 mps 750 mmHg 85%
    01:00 +4°C° 0 mm 3 mps 750 mmHg 87%
    02:00 +3°C° 0 mm 3 mps 749 mmHg 88%
    03:00 +3°C° 0 mm 4 mps 748 mmHg 89%
    04:00 +3°C° 0 mm 4 mps 748 mmHg 90%
    05:00 +3°C° 0 mm 4 mps 747 mmHg 90%
    06:00 +3°C° 0 mm 4 mps 747 mmHg 90%
    07:00 +3°C° 0 mm 4 mps 746 mmHg 89%
    08:00 +3°C° 0 mm 5 mps 746 mmHg 85%
    09:00 +5°C° 0 mm 5 mps 746 mmHg 80%
    10:00 +5°C° 0 mm 6 mps 746 mmHg 75%
    11:00 +7°C° 0 mm 6 mps 746 mmHg 74%
    12:00 +7°C° 0 mm 6 mps 746 mmHg 72%
    13:00 +8°C° 0 mm 6 mps 746 mmHg 71%
    14:00 +7°C° 0 mm 6 mps 746 mmHg 73%
    15:00 +7°C° 0 mm 6 mps 746 mmHg 76%
    16:00 +6°C° 0 mm 5 mps 746 mmHg 78%
    17:00 +5°C° 0 mm 4 mps 747 mmHg 81%
    18:00 +5°C° 0 mm 4 mps 747 mmHg 83%
    19:00 +4°C° 0 mm 3 mps 747 mmHg 86%
    20:00 +3°C° 0 mm 3 mps 748 mmHg 89%
    21:00 +3°C° 0 mm 3 mps 748 mmHg 92%
    22:00 +2°C° 0 mm 3 mps 748 mmHg 95%
    23:00 +2°C° 0 mm 3 mps 748 mmHg 94%

    1 March, Friday

    Time Temperature Precipitation Wind Pressure Humidity
    00:00 +2°C° 0 mm 2 mps 748 mmHg 94%
    01:00 +2°C° 0 mm 2 mps 748 mmHg 93%
    02:00 +2°C° 0 mm 2 mps 748 mmHg 91%
    03:00 +1°C° 0 mm 2 mps 749 mmHg 90%
    04:00 +1°C° 0 mm 2 mps 749 mmHg 88%
    05:00 +1°C° 0 mm 2 mps 749 mmHg 87%
    06:00 -1°C° 0 mm 2 mps 749 mmHg 87%
    07:00 -1°C° 0 mm 2 mps 749 mmHg 86%
    08:00 +2°C° 0 mm 2 mps 750 mmHg 79%
    09:00 +3°C° 0 mm 2 mps 751 mmHg 72%
    10:00 +4°C° 0 mm 3 mps 751 mmHg 65%
    11:00 +4°C° 0 mm 3 mps 751 mmHg 62%
    12:00 +5°C° 0 mm 3 mps 752 mmHg 58%
    13:00 +5°C° 0 mm 3 mps 752 mmHg 54%
    14:00 +5°C° 0 mm 3 mps 752 mmHg 54%
    15:00 +4°C° 0 mm 3 mps 752 mmHg 54%
    16:00 +4°C° 0 mm 3 mps 752 mmHg 54%
    17:00 +3°C° 0 mm 3 mps 752 mmHg 61%
    18:00 +2°C° 0 mm 3 mps 753 mmHg 67%
    19:00 0°C° 0 mm 3 mps 753 mmHg 73%
    20:00 +1°C° 0 mm 2 mps 754 mmHg 76%
    21:00 -1°C° 0 mm 2 mps 754 mmHg 79%
    22:00 -1°C° 0 mm 2 mps 754 mmHg 82%
    23:00 -2°C° 0 mm 2 mps 755 mmHg 82%
    Show more